Content
SEND FEEDBACK

Daily
Averages
Monthly
Summary
France

CANNES, FRANCE


Home > Europe > France
Elevation: 30 feet     Latitude: 43 33N     Longitude: 006 57E

WEATHER
 
SELECT A DAY
Number of Records: 105,351;   Date Range: 7/1/96 - 8/10/14
 
SHARE

PRINT THIS DATA

[ ← Previous Day ]
WEATHER ALMANAC - JULY 13, 2013
[ Next Day → ]
[ °C ]   °F
Weather ElementAverageHighLow
Temperature74.6 °F80 °F (11:00 am)67 °F (6:00 am)
Dewpoint68.3 °F71.6 °F (4:00 pm)64.4 °F (5:00 am)
Humidity79.5 %94 % (3:30 am)58 % (10:00 am)
Barometer30.00 in30.03 in (1:00 am)29.95 in (8:00 pm)
Wind Speed5.3 mph17.9 mph (11:00 am)
Weather ElementAverage
Visibility6.3 mi
Wind DirectionENE (79.3 °)

Weather ElementTotal
Precipitation---
Cooling Degree Days8.5 (Base 65)
Growing Degree Days23.5 (Base 50)
Averaged from 69 records on July 13, 2013
WEATHER CONDITIONS BREAKOUT
WIND DIRECTION BREAKOUT
WEATHER BY HOUR - JULY 13, 2013
[ °C ]   °F
Local TimeTemperatureDewpointHumidityBarometerVisibilityWind DirectionWind SpeedGust SpeedPrecipitationEventsConditions
12:00 AM71.6 °F68.0 °F88 %30.01 in6.2 miNNE (20°)2.3 mphPartly Cloudy
12:30 AM71.6 °F68.0 °F88 %30.01 in6.2 miVariable1.2 mph
1:00 AM70.0 °F67.0 °F85 %30.03 in6.0 miNorth4.5 mphClear
1:00 AM69.8 °F66.2 °F88 %30.01 in5.6 miVariable2.3 mph
1:30 AM69.8 °F66.2 °F88 %30.01 in5.6 miVariable3.5 mph
2:00 AM70.0 °F66.0 °F84 %30.02 in6.0 miNNE (20°)6.7 mphClear
2:00 AM69.8 °F66.2 °F88 %30.01 in5.6 miVariable3.5 mph
2:30 AM69.8 °F66.2 °F88 %30.01 in5.6 miVariable1.2 mphMostly Cloudy
3:00 AM69.8 °F66.2 °F88 %30.01 in5.0 miVariable2.3 mphPartly Cloudy
3:00 AM69.0 °F66.0 °F86 %30.01 in5.0 miNorth (10°)4.5 mphClear
3:30 AM68.0 °F66.2 °F94 %30.01 in5.0 miVariable2.3 mphMostly Cloudy
4:00 AM69.0 °F65.0 °F85 %30.02 in5.0 miNorth (10°)4.5 mphClear
4:00 AM68.0 °F66.2 °F94 %30.01 in5.0 miVariable2.3 mphMostly Cloudy
4:30 AM68.0 °F66.2 °F94 %30.01 in5.0 miVariable2.3 mphPartly Cloudy
5:00 AM68.0 °F65.0 °F87 %30.01 in4.0 miNorth1.2 mphClear
5:00 AM68.0 °F64.4 °F88 %29.98 in4.3 miVariable1.2 mph
5:30 AM68.0 °F64.4 °F88 %29.98 in4.3 miCalm
6:00 AM68.0 °F64.4 °F88 %29.98 in4.3 miVariable2.3 mphPartly Cloudy
6:00 AM67.0 °F65.0 °F92 %30.01 in4.0 miNorth (350°)4.5 mphClear
6:30 AM68.0 °F64.4 °F88 %30.01 in4.3 miVariable2.3 mphPartly Cloudy
7:00 AM68.0 °F66.0 °F90 %30.02 in4.0 miNNW (340°)4.5 mphClear
7:00 AM68.0 °F66.2 °F94 %30.01 in4.3 miVariable2.3 mphOvercast
7:30 AM69.8 °F66.2 °F88 %30.01 in5.0 miNorth (10°)3.5 mphMostly Cloudy
8:00 AM71.0 °F67.0 °F84 %30.01 in5.0 miNorth2.3 mphClear
8:00 AM71.6 °F68.0 °F88 %30.01 in5.0 miVariable2.3 mphMostly Cloudy
8:30 AM73.4 °F68.0 °F83 %30.01 in6.2 miVariable2.3 mphOvercast
9:00 AM75.2 °F68.0 °F78 %30.01 in6.2 miVariable3.5 mphOvercast
9:30 AM77.0 °F68.0 °F74 %30.01 in6.2 miVariable2.3 mphPartly Cloudy
10:00 AM79.0 °F67.0 °F58 %30.02 in11.0 miNorth4.5 mphClear
10:00 AM78.8 °F66.2 °F65 %30.01 in6.2 miVariable2.3 mph
10:30 AM78.8 °F68.0 °F69 %30.01 in6.2 miCalmScattered Clouds
11:00 AM80.0 °F69.0 °F60 %30.02 in9.0 miSouth (170°)17.9 mphClear
11:00 AM78.8 °F68.0 °F69 %30.01 in6.2 miSouth (170°)9.2 mphMostly Cloudy
11:30 AM78.8 °F68.0 °F69 %30.01 in6.2 miSouth (180°)9.2 mphPartly Cloudy
12:00 PM78.8 °F68.0 °F69 %30.01 in6.2 miSouth (170°)9.2 mphMostly Cloudy
12:00 PM79.0 °F68.0 °F62 %30.02 in9.0 miSouth (170°)17.9 mphClear
12:30 PM78.8 °F69.8 °F74 %30.01 in6.2 miSSE (160°)9.2 mphMostly Cloudy
1:00 PM79.0 °F70.0 °F68 %30.02 in9.0 miSouth (170°)17.9 mphClear
1:00 PM78.8 °F69.8 °F74 %30.01 in6.2 miSouth (170°)9.2 mphMostly Cloudy
1:30 PM78.8 °F69.8 °F74 %30.01 in6.2 miSSE (160°)9.2 mphScattered Clouds
2:00 PM78.8 °F69.8 °F74 %30.01 in5.6 miSouth (170°)8.1 mphScattered Clouds
2:30 PM78.8 °F69.8 °F74 %30.01 in5.6 miSouth (170°)6.9 mphPartly Cloudy
3:00 PM78.8 °F69.8 °F74 %30.01 in5.6 miSouth (190°)8.1 mphMostly Cloudy
3:00 PM79.0 °F71.0 °F69 %30.01 in6.0 miSouth (190°)15.7 mphClear
3:30 PM78.8 °F69.8 °F74 %30.01 in5.6 miSouth (170°)8.1 mphPartly Cloudy
4:00 PM79.0 °F71.0 °F70 %30.01 in6.0 miSouth (170°)11.2 mphClear
4:00 PM78.8 °F71.6 °F78 %30.01 in6.2 miSouth (170°)5.8 mphPartly Cloudy
4:30 PM78.8 °F69.8 °F74 %30.01 in5.6 miSSE (160°)6.9 mphMostly Cloudy
5:00 PM78.0 °F71.0 °F72 %30.01 in8.0 miSouth (170°)6.9 mphClear
5:00 PM78.8 °F71.6 °F78 %30.01 in6.2 miSouth (170°)6.9 mphScattered Clouds
5:30 PM78.8 °F69.8 °F74 %29.98 in6.2 miSouth (170°)5.8 mphPartly Cloudy
6:00 PM78.8 °F69.8 °F74 %29.98 in6.2 miSSE (160°)6.9 mph
6:00 PM79.0 °F70.0 °F67 %29.99 in11.0 miSSE (160°)13.4 mphClear
6:30 PM78.8 °F71.6 °F78 %29.98 in6.2 miSSE (150°)4.6 mphPartly Cloudy
7:00 PM77.0 °F71.0 °F77 %29.98 in9.0 miSSE (150°)8.9 mphClear
7:00 PM77.0 °F71.6 °F83 %29.98 in6.2 miSSE (150°)4.6 mphMostly Cloudy
7:30 PM77.0 °F71.6 °F83 %29.98 in6.2 miSE (140°)4.6 mphMostly Cloudy
8:00 PM77.0 °F71.0 °F75 %29.97 in11.0 miSE (130°)4.6 mphClear
8:00 PM77.0 °F69.8 °F78 %29.95 in6.2 miSE (130°)4.6 mphMostly Cloudy
8:30 PM77.0 °F71.6 °F83 %29.95 in6.2 miVariable3.5 mphOvercast
9:00 PM77.0 °F69.8 °F78 %29.95 in6.2 miVariable2.3 mphMostly Cloudy
9:00 PM76.0 °F70.0 °F76 %29.98 in13.0 miESE (110°)4.5 mphClear
9:30 PM77.0 °F69.8 °F78 %29.98 in6.2 miVariable2.3 mphMostly Cloudy
10:00 PM76.0 °F69.0 °F75 %30.00 in12.0 miNorth (10°)4.5 mphClear
10:00 PM77.0 °F69.8 °F78 %29.98 in6.2 miVariable2.3 mphMostly Cloudy
10:30 PM75.2 °F69.8 °F83 %29.98 in6.2 miVariable2.3 mphPartly Cloudy
11:00 PM74.0 °F69.0 °F81 %30.00 in9.0 miNorth2.3 mphClear
11:00 PM75.2 °F69.8 °F83 %29.98 in6.2 miVariable2.3 mphScattered Clouds
11:30 PM73.4 °F68.0 °F83 %29.98 in6.2 miVariable2.3 mphPartly Cloudy
Hourly data recorded from LFMD, located miles away from Cannes, France







STORIES FROM OUR PARTNERS